#timestamp,LO_Frequency,Hit 
1500501615.7,286047004.1,N
1500501635.5,286047004.1,N
1500501655.4,286047003.5,N
1500501675.2,286047003.4,N
1500501695.0,286047003.1,N
1500501695.9,286047003.1,N
1500501715.8,286047006.0,N
1500501735.6,286047003.4,N
1500501755.5,286047003.1,N
1500501775.3,286047011.9,N
1500501795.1,286047006.0,N
1500501815.9,286047003.4,N
1500501835.7,286047005.8,N
1500501855.5,286047005.3,N
1500501875.4,286047005.8,N
1500501895.2,286047005.4,N
1500501915.1,286047006.0,N
1500501916.0,286047006.0,N
1500501935.8,286047005.9,N
1500501955.6,286047005.5,N
1500501975.5,286047003.2,N
1500501995.3,286047005.1,N
1500502015.1,286047005.3,N
1500502035.9,286047005.2,N
1500502055.7,286047005.1,N
1500502075.6,286047007.4,N
1500502095.4,286047007.5,N
1500502115.2,286047004.5,N
1500502135.1,286047005.0,N
1500502136.0,286047005.0,N
1500502155.8,286047007.1,N
1500502175.7,286047006.3,N
1500502195.5,286047009.1,N
1500502215.3,286047006.8,N
1500502235.2,286047006.4,N
1500502255.0,286047006.2,N
1500502255.9,286047006.2,N
1500502275.7,286047009.0,N
1500502295.6,286047009.1,N
1500502315.4,286047006.8,N
1500502335.3,286047006.4,N
1500502355.1,286047009.1,N
1500502356.0,286047009.1,N
1500502375.8,286047008.8,N
1500502395.7,286047006.2,N
1500502415.5,286047008.3,N
1500502435.3,286047007.7,N
1500502455.2,286047007.8,N
1500502475.0,286047008.9,N
1500502475.9,286047008.9,N
1500502495.8,286047007.9,N
1500502515.6,286047007.8,N
1500502535.4,286047010.8,N
1500502555.3,286047008.5,N
1500502575.1,286047008.2,N
1500502595.9,286047008.3,N
1500502615.7,286047008.5,N
1500502635.5,286047008.9,N
1500502655.4,286047010.7,N
1500502675.2,286047007.9,N
1500502695.0,286047008.3,N
1500502696.0,286047008.3,N
1500502715.8,286047008.0,N
1500502735.6,286047008.9,N
1500502755.5,286047008.3,N
1500502775.3,286047010.6,N
1500502795.1,286047008.4,N
1500502815.9,286047008.3,N
1500502835.7,286047008.2,N
1500502855.6,286047008.2,N
1500502875.4,286047007.8,N
1500502895.2,286047008.4,N
1500502915.1,286047007.8,N
1500502916.0,286047007.8,N
1500502935.8,286047008.0,N
1500502955.6,286047008.5,N
1500502975.5,286047008.1,N
1500502995.3,286047007.7,N
1500503015.2,286047007.8,N
1500503035.9,286047010.4,N
1500503055.7,286047008.1,N
1500503075.6,286047008.0,N
1500503095.4,286047008.5,N
1500503115.2,286047008.0,N
1500503135.1,286047007.8,N
1500503136.0,286047007.8,N
1500503155.8,286047008.5,N
1500503175.7,286047007.8,N
1500503195.5,286047009.5,N
1500503215.3,286047010.8,N
1500503235.2,286047009.9,N
1500503255.0,286047010.1,N
1500503255.9,286047010.1,N
1500503275.8,286047010.4,N
1500503295.6,286047010.3,N
1500503315.4,286047007.9,N
1500503335.3,286047007.8,N
1500503355.1,286047008.2,N
1500503375.8,286047010.5,N
1500503395.7,286047010.8,N
1500503415.5,286047007.8,N
1500503435.4,286047010.7,N
1500503455.2,286047010.2,N
1500503475.0,286047011.9,N
1500503475.9,286047011.9,N
1500503495.8,286047012.3,N
1500503515.6,286047009.6,N
1500503535.5,286047010.3,N
1500503555.3,286047008.2,N
1500503575.1,286047010.1,N
1500503595.9,286047008.1,N
1500503615.7,286047007.9,N
1500503635.5,286047010.3,N
1500503655.4,286047009.6,N
1500503675.2,286047008.2,N
1500503695.1,286047010.8,N
1500503696.0,286047010.8,N
1500503715.8,286047008.5,N
1500503735.6,286047008.5,N
1500503755.5,286047008.0,N
1500503775.3,286047010.3,N
1500503795.1,286047009.3,N
1500503815.9,286047009.4,N
1500503835.7,286047012.3,N
1500503855.6,286047012.4,N
1500503875.4,286047009.6,N
1500503895.2,286047009.9,N
1500503915.1,286047012.1,N
1500503916.0,286047012.1,N
1500503935.8,286047010.1,N
1500503955.7,286047010.5,N
1500503975.5,286047009.6,N
1500503995.3,286047010.2,N
1500504015.2,286047009.3,N
1500504035.0,286047009.6,N
1500504035.9,286047009.6,N
1500504055.7,286047012.2,N
1500504075.6,286047011.8,N
1500504095.4,286047011.4,N
1500504115.3,286047013.9,N
1500504135.1,286047013.8,N
1500504155.8,286047013.5,N
1500504175.7,286047013.3,N
1500504195.5,286047012.7,N
1500504215.4,286047012.9,N
1500504235.2,286047011.2,N
1500504255.1,286047011.1,N
1500504256.0,286047011.1,N
1500504275.8,286047011.5,N
1500504295.6,286047011.5,N
1500504315.5,286047011.7,N
1500504335.3,286047011.5,N
1500504355.2,286047011.7,N
1500504375.9,286047014.0,N
1500504395.7,286047011.5,N
1500504415.6,286047009.9,N
1500504435.4,286047010.2,N
1500504455.3,286047010.9,N
1500504475.1,286047011.9,N
1500504476.0,286047011.9,N
1500504495.8,286047010.1,N
1500504515.7,286047009.8,N
1500504535.5,286047009.7,N
1500504555.3,286047010.1,N
1500504575.2,286047007.8,N
1500504595.0,286047010.7,N
1500504595.9,286047010.7,N
1500504615.8,286047007.8,N
1500504635.6,286047009.5,N
1500504655.4,286047012.1,N
1500504675.3,286047011.7,N
1500504695.1,286047011.6,N
1500504715.9,286047012.2,N
1500504735.7,286047012.3,N
1500504755.5,286047011.4,N
1500504775.4,286047012.1,N
1500504795.2,286047011.9,N
1500504815.0,286047011.5,N
1500504815.9,286047011.5,N
1500504835.8,286047012.1,N
1500504855.6,286047009.9,N
1500504875.5,286047010.0,N
1500504895.3,286047010.1,N
1500504915.1,286047009.5,N
1500504935.9,286047012.0,N
1500504955.7,286047010.3,N
1500504975.5,286047009.8,N
1500504995.4,286047010.2,N
1500505015.2,286047010.5,N
1500505035.1,286047009.6,N
1500505036.0,286047009.6,N
1500505055.8,286047010.2,N
1500505075.6,286047012.2,N
1500505095.5,286047011.4,N
1500505115.3,286047013.8,N
1500505135.2,286047012.6,N
1500505155.9,286047013.1,N
1500505175.7,286047012.7,N
1500505195.6,286047015.6,N
